Location: Clyde
(45.1830°S, 169.3170°E)
Time: 18:17:22
(UTC+12:00)

Cosmos 2369 Rocket - Pass Details

Date: 14 May 2021
Orbit: 827 x 854 km, 71.0° (Epoch: 16 June)

Event Time Altitude Azimuth Distance (km) Brightness Sun altitude
Rises 19:20:17 0° 198° (SSW) 3,422 5.5 -20.3°
Reaches altitude 10° 19:23:26 10° 182° (S) 2,477 4.6 -20.8°
Enters shadow 19:26:00 18° 156° (SSE) 1,944 3.8 -21.3°
